User: anonymous   Login
Location: *
(44.1392°N, 4.8079°E)
Time: 19:35:58
(UTC+00:00)
Language:

Cosmos 2228 Rocket - Orbit

View from above orbital plane
View from above orbital plane
View from above satellite
View from above satellite

Ground track
Ground track

The orbit data is extracted from the following two-line orbital elements,

1 22287U 92094B   21271.47980525  .00000113  00000-0  12466-4 0  9996
2 22287  82.5235  61.9163 0023231 249.8400 110.0313 14.78195535528600
Epoch (UTC): 28 September 2021 11:30:55
Eccentricity: 0.0023231
inclination: 82.5235°
perigee height: 619 km
apogee height: 651 km
right ascension of ascending node: 61.9163°
argument of perigee: 249.8400°
revolutions per day: 14.78195535
mean anomaly at epoch: 110.0313°
orbit number at epoch: 52860

The dashed part of the orbit path shows where the satellite is in the earth's shadow,  

DLR